Location: Dzierżoniów
(50.7304°N, 16.6502°E)
Time: 16:37:18
(UTC+01:00)

ISS - Visible Passes

Search period start: 20 November 2017 00:00
Search period end: 30 November 2017 00:00
Orbit: 402 x 407 km, 51.6° (Epoch: 21 November)

Date Brightness Start Highest point End Pass type
(mag) Time Alt. Az. Time Alt. Az. Time Alt. Az.
28 Nov -1.5 18:16:26 10° SSW 18:17:35 17° S 18:17:35 17° S visible
29 Nov -1.8 17:24:53 10° S 17:26:56 16° SE 17:27:28 15° SE visible
29 Nov -0.7 18:59:40 10° WSW 19:00:07 13° WSW 19:00:07 13° WSW visible
